Weather in Dzhidzhikhabl

Russia / Republic of Adygea     44°56′51″N   39°24′24″E
temp.,
°C
wind,
m/s
gust,
m/s
humid.,
%
clouds,
%
prec.,
mm/h
press.,
hPa
HPBL,
m
24 may, tue
tue2400:00+12w3493100 1.3 1008106
03:00+11wsw3594100 1.9 1009135
06:00+12wsw249499 0.3 1009158
09:00+12nnw2291100 1.9 1010114
12:00+15nnw337893 1.5 1011621
15:00+16nw347399 2.6 1012757
18:00+13w248996 0.8 1013262
21:00+12wsw2592100 1.4 1015127
25 may, wed
wed2500:00+12wsw239098 0.8 101654
03:00+11w33929 0.9 101771
06:00+10wsw34903 0.0 101891
09:00+15w33680 0.1 1019433
12:00+19w34493 0.0 10201674
15:00+20wnw344562 0.0 10192008
18:00+18wnw256627 0.0 1020467
21:00+13sw227512 0.0 102120
26 may, thu
thu2600:00+11wsw33865 0.0 102131
03:00+10wsw228645 0.0 102218
06:00+11ssw238516 0.0 102278
09:00+17sw23645 0.0 1022510
12:00+20w235123 0.0 10211577
15:00+21wnw134637 0.0 10201329
18:00+19wsw366755 0.0 1019225
21:00+14sw4564100 0.0 102073
27 may, fri
fri2700:00+13wsw2270100 0.0 102040
03:00+12ssw3369100 0.0 102062
06:00+13ssw227259 0.0 102048
09:00+17wsw235999 0.0 1020364
12:00+21w3451100 0.0 1019945
15:00+22w454869 0.0 1018979
18:00+21wnw34651 0.0 1018400
21:00+15wnw11800 0.0 101911
28 may, sat
sat2800:00+13sw11865 0.0 101810
03:00+12sse22890 0.0 101713
06:00+13se22875 0.0 101768
09:00+20ese23665 0.0 1015478
12:00+24sse12505 0.0 10141334
15:00+25nnw22465 0.0 10131294
18:00+25ne11585 0.0 1013812
21:00+18nne22655 0.0 101412